Regional Weather Roundup
Issued by NWS

Home | Current Version | Previous Version | Graphics & Text | Print | Product List | Glossary On
Versions: 1 2 3 4 5 6 7 8 9 10 11 12 13 14 15 16 17 18 19 20 21 22 23 24 25 26 27 28 29 30 31 32 33 34 35 36 37 38 39 40 41 42 43 44 45 46 47 48 49 50
000
ASUS43 KOAX 250302
RWRNE

WEATHER ROUNDUP FOR NEBRASKA
NATIONAL WEATHER SERVICE OMAHA NE
1000 PM CDT THU APR 24 2014

NOTES: SATELLITE DATA IS BEING USED TO AUGMENT CLOUD COVER ABOVE
       12000 FEET.
       "FAIR" INDICATES FEW OR NO CLOUDS BELOW 12,000 FEET WITH NO
       SIGNIFICANT WEATHER AND/OR OBSTRUCTIONS TO VISIBILITY.

  * THESE STATIONS DO NOT REPORT WEATHER SUCH AS RAIN...SNOW OR FOG.

NEZ001>004-019>022-054>056-250400-
NEBRASKA PANHANDLE

CITY           SKY/WX    TMP DP  RH WIND       PRES   REMARKS
SCOTTSBLUFF    CLOUDY    56  24  29 NW6       29.82R
ALLIANCE       MOCLDY    48  30  49 S5        29.82R
CHADRON        CLOUDY    55  32  41 S10       29.76F
KIMBALL        MOCLDY    49  19  29 SW7       29.87S
SIDNEY         MOCLDY    43  23  45 SW10      29.88R
$$

NEZ057>060-069>072-079>082-250400-
SOUTHWEST NEBRASKA

CITY           SKY/WX    TMP DP  RH WIND       PRES   REMARKS
NORTH PLATTE   PTCLDY    48  23  37 CALM      29.84R
IMPERIAL       PTCLDY    54  20  26 SE3       29.87R
LEXINGTON      PTCLDY    51  24  34 SW7       29.84R
MCCOOK         CLEAR     54  19  25 S3        29.86R
OGALLALA       CLEAR     44  21  39 CALM      29.85R
$$

NEZ005>010-023>029-035>040-094-250400-
NORTH CENTRAL NEBRASKA

CITY           SKY/WX    TMP DP  RH WIND       PRES   REMARKS
VALENTINE      MOCLDY    54  25  32 NE6       29.81R
AINSWORTH      MOCLDY    51  26  38 E3        29.82R
BROKEN BOW     PTCLDY    43  20  39 CALM      29.82R
O`NEILL        CLEAR     52  19  26 N3        29.81R
ORD            CLEAR     44  27  51 CALM      29.81R
THEDFORD       CLEAR     52  19  27 CALM      29.83R
$$

NEZ041-046>049-061>064-073>077-083>087-250400-
SOUTH CENTRAL NEBRASKA

CITY           SKY/WX    TMP DP  RH WIND       PRES   REMARKS
GRAND ISLAND   CLEAR     56  36  47 CALM      29.83R
AURORA         CLEAR     55  42  60 S3        29.83R
HASTINGS       CLEAR     55  36  48 CALM      29.83R
HEBRON         CLEAR     49  40  69 CALM      29.84R
HOLDREGE       CLEAR     56  27  33 CALM      29.84S
KEARNEY *      CLEAR     57  28  33 SW5       29.84R
YORK           CLEAR     52  39  62 SW3       29.82R
$$

NEZ011>018-030>034-042>045-250400-
NORTHEAST NEBRASKA

CITY           SKY/WX    TMP DP  RH WIND       PRES   REMARKS
NORFOLK        CLEAR     56  30  37 CALM      29.80R
ALBION         CLEAR     48  36  62 CALM      29.82R
BLAIR          PTCLDY    53  40  61 CALM      29.79R
COLUMBUS *     CLEAR     52  36  54 CALM      29.81R
TEKAMAH        CLEAR     49  41  74 SW7       29.78R
$$

NEZ050>053-065>068-078-088>093-250400-
SOUTHEAST NEBRASKA

CITY           SKY/WX    TMP DP  RH WIND       PRES   REMARKS
LINCOLN        CLEAR     55  39  54 SW3       29.82R
OMAHA EPPLEY   PTCLDY    57  44  62 S7        29.80R
BEATRICE       CLEAR     53  39  59 S6        29.83R
FALLS CITY     CLEAR     51  47  86 S6        29.82R
NEBRASKA CITY  CLEAR     52  46  80 S6        29.82R
PLATTSMOUTH    CLEAR     51  42  71 SE5       29.81R
$$

NEZ044-045-051>053-067-250400-
OMAHA AREA

CITY           SKY/WX    TMP DP  RH WIND       PRES   REMARKS
OMAHA EPPLEY   PTCLDY    57  44  62 S7        29.80R
BLAIR          PTCLDY    53  40  61 CALM      29.79R
OFFUTT AFB     PTCLDY    53  47  80 S6        29.80R
PLATTSMOUTH    CLEAR     51  42  71 SE5       29.81R
WAHOO          FAIR      54  38  54 S3        29.80R
$$



USA.gov is the U.S. government's official web portal to all federal, state and local government web resources and services.